www.pogodaiklimat.ru

Погода и климат >> Архив погоды >> Россия >> Ямало-Ненецкий АО >> Тамбей


ПОГОДА в Тамбее

  • Прогноз погоды в Тамбее
  • Монитор погоды в Тамбее

АРХИВ ПОГОДЫ в Тамбее

Время (UTC), дата Ветер
(напр.,м/с)
 
Видим.   Явления Облачность Т
(С)
Тd
(С)
f
(%)
Тe
(С)
Тes
(С)
Комфортность P
(гПа)
Po
(гПа)
Тmin
(С)
Tmax
(С)
R
(мм)
R24
(мм)
S
(см)
00 17.04 З 4 н/о н/о -25.6 -27.6 83 -36 -36 опасность
обморожения
1025.1 1024.0
03 17.04 ЮЗ 4 н/о н/о -23.1 -24.9 85 -33 -33 опасность
обморожения
1022.4 1021.3
06 17.04 Ю 6 н/о н/о -18.6 -20.0 89 -29 -29 1019.8 1018.7
09 17.04 Ю 9 н/о н/о -15.7 -16.8 91 -27 -27 1017.1 1016.0
12 17.04 Ю 8 н/о н/о -15.5 -16.5 92 -27 -27 1014.4 1013.3
15 17.04 Ю 8 н/о н/о -17.1 -18.2 91 -29 -29 1013.1 1012.0
18 17.04 Ю 8 н/о н/о -18.5 -19.7 90 -30 -30 1011.8 1010.7
21 17.04 Ю 7 н/о н/о -20.0 -21.3 89 -32 -32 опасность
обморожения
1011.8 1010.7
00 18.04 Ю 6 н/о н/о -19.9 -21.4 88 -31 -31 опасность
обморожения
1010.4 1009.3
03 18.04 Ю 7 н/о н/о -17.7 -18.9 90 -29 1010.4 1009.3
06 18.04 Ю 9 н/о н/о -15.4 -16.4 92 -27 1009.1 1008.0
09 18.04 Ю 9 н/о н/о -13.1 -13.9 94 -24 -24 1009.1 1008.0
12 18.04 Ю 8 н/о н/о -11.5 -12.1 95 -21 -21 1006.4 1005.3
15 18.04 Ю 7 н/о н/о -11.2 -11.7 96 -21 -21 1005.0 1004.0
18 18.04 Ю 6 н/о н/о -10.9 -11.3 -20 -20 1002.5 1001.4
21 18.04 ЮВ 5 н/о н/о -11.2 -11.6 97 -19 -19 1003.7 1002.7
00 19.04 СВ 4 н/о н/о -13.9 -14.5 95 -21 -21 1005.1 1004.0
03 19.04 С 5 н/о н/о -13.2 -14.0 94 -22 -22 1006.4 1005.3
06 19.04 С 5 н/о н/о -14.3 -15.3 92 -23 -23 1009.1 1008.0
09 19.04 С 5 н/о н/о -12.8 -13.8 92 -21 -21 1010.4 1009.3
12 19.04 С 5 н/о н/о -15.3 -16.4 91 -24 -24 1011.8 1010.7
15 19.04 С 5 н/о н/о -19.9 -21.4 88 -30 -30 1013.1 1012.0
18 19.04 С 5 н/о н/о -21.3 -22.9 87 -32 -32 опасность
обморожения
1014.4 1013.3
21 19.04 С 3 н/о н/о -23.8 -25.7 84 -32 -32 опасность
обморожения
1014.4 1013.3
00 20.04 С 3 н/о н/о -24.6 -26.5 84 -33 -33 опасность
обморожения
1015.8 1014.7
03 20.04 З 1 н/о н/о -22.1 -23.9 85 -25 -25 1014.4 1013.3
06 20.04 ЮЗ 3 н/о н/о -18.0 -19.2 90 -25 -25 1014.4 1013.3
09 20.04 Ю 5 н/о н/о -15.0 -15.9 93 -24 -24 1013.1 1012.0
12 20.04 Ю 8 н/о н/о -13.1 -13.7 95 -23 -23 1010.4 1009.3
15 20.04 Ю 10 н/о н/о -12.0 -12.5 96 -23 -23 1007.8 1006.7
18 20.04 Ю 11
{14}
н/о н/о -11.3 -11.8 96 -23 -23 1003.7 1002.7
21 20.04 Ю 8
{13}
н/о н/о -8.8 -9.1 98 -18 -18 1001.0 1000.0
00 21.04 ЮЗ 6 н/о н/о -5.5 -5.4 101 -14 -14 999.7 998.7
03 21.04 ЮЗ 4 н/о н/о -3.3 -2.9 103 -10 -10 999.7 998.7
06 21.04 З 3 н/о н/о -1.6 -1.5 101 -7 -7 999.7 998.7
09 21.04 З 2 н/о н/о -1.0 -1.3 98 -5 -5 1001.0 1000.0
12 21.04 З 3 н/о н/о -1.2 -1.1 101 -6 -6 1001.0 1000.0
15 21.04 З 3 н/о н/о -1.5 -1.0 104 -7 -7 1001.0 1000.0
18 21.04 З 1 н/о н/о -2.4 -1.9 104 -5 -5 999.7 998.7
21 21.04 ЮЗ 4 н/о н/о -2.6 -2.1 104 -9 -9 997.0 996.0
00 22.04 Ю 7 н/о н/о -3.0 -2.5 104 -11 -11 993.0 992.0
03 22.04 Ю 7 н/о н/о -1.8 -1.3 104 -10 -10 989.0 988.0
06 22.04 ЮЗ 6 н/о н/о -0.8 -0.3 104 -8 -8 986.3 985.3
09 22.04 З 8 н/о н/о +0.2 +0.7 104 -8 -8 985.0 984.0
12 22.04 З 11
{15}
н/о н/о +0.2 +0.7 104 -9 -9 985.0 984.0
15 22.04 З 9
{13}
н/о н/о +0.1 +0.6 104 -8 -8 982.3 981.3
18 22.04 СЗ 11
{16}
н/о н/о -1.3 -0.8 -11 -11 980.5 979.6
21 22.04 С 15
{20}
н/о н/о -8.7 -8.8 99 -21 -21 983.7 982.7
00 23.04 С 21
{26}
н/о н/о -13.0 -13.5 96 -28 -28 989.0 988.0
03 23.04 С 19
{27}
н/о н/о -15.6 -16.5 93 -31 -31 опасность
обморожения
995.8 994.7
06 23.04 С 16
{26}
н/о н/о -15.5 -16.4 93 -30 -30 999.8 998.7
09 23.04 СЗ 15
{23}
н/о н/о -15.7 -16.8 91 -30 -30 1005.1 1004.0
12 23.04 С 10
{20}
н/о н/о -16.4 -17.6 90 -29 -29 1007.8 1006.7
15 23.04 СЗ 7
{15}
н/о н/о -17.4 -18.9 88 -28 -28 1009.1 1008.0
18 23.04 З 6 н/о н/о -19.4 -20.9 88 -30 1010.4 1009.3
21 23.04 З 6 н/о н/о -21.9 -23.3 88 -33 1010.4 1009.3

 

Местоположение метеостанции Тамбей (Ямало-Ненецкий АО, Россия): широта 71.48 долгота 71.82 высота над уровнем моря 8 м.

В архиве по умолчанию представлена погода в Тамбее за последнюю неделю. Архивные данные за месяц целиком и за предыдущие месяцы, начиная с января 2011 года, Вы можете получить, выбрав интересующий диапазон дат из раскрывающегося списка и нажав кнопку "Ввод!".


*Определитесь, кто Вы:
робот инопланетянин человек

Внимание! Время в таблицах - всемирное. Для получения местного времени необходимо прибавить поправку, которая равна 5 ч.

Смотрите также архив погоды в соседних городах и на ближайших метеорологических станциях:

Погода в Сеяхе (Ямало-Ненецкий АО, Россия) (148 км)
Погода в Имени Попова (Ямало-Ненецкий АО, Россия) (214 км)
Погода в Гыде (Ямало-Ненецкий АО, Россия) (248 км)
Погода в Марресале (Ямало-Ненецкий АО, Россия) (270 км)
Погода в Антипаюте (Ямало-Ненецкий АО, Россия) (327 км)
Погода в Усть-Каре (Ненецкий АО, Россия) (357 км)
Погода на Острове Диксон (Красноярский край, Россия) (365 км)
Погода в Сопочной Карге (Красноярский край, Россия) (382 км)
Погода в Амдерме (Ненецкий АО, Россия) (419 км)
Погода в Новом Порте (Ямало-Ненецкий АО, Россия) (425 км)

Пояснения к столбцам:

Ветер - указаны скорость ветра в м/с - средняя за 10 мин, порывы в срок и между сроками (в фигурных скобках) и направление, откуда дует ветер: С - северный, СВ - северо-восточный, В - восточный, ЮВ - юго-восточный, Ю - южный, ЮЗ - юго-западный, З - западный, СЗ - северо-западный.
Видимость - горизонтальная дальность видимости в метрах или километрах. При видимости от 1 до 10 км при отсутствии осадков обычно наблюдается дымка, при ухудшении видимости до 1 км и менее - туман. В сухую погоду видимость может ухудшаться дымом, пылью или мглою.
Явления - указаны атмосферные явления, наблюдавшиеся в срок или в последний час перед сроком; фигурными скобками обозначены явления, наблюдавшиеся между сроками (за 1-3 часа до срока); квадратными скобками обозначены град или гололедные отложения с указанием их диаметра в мм.
Облачность - указаны через наклонную черту общая и нижняя облачность в баллах и высота нижней границы облаков в метрах; квадратными скобками обозначены формы облаков: Ci - перистые, Cs - перисто-слоистые, Cc - перисто-кучевые, Ac - высококучевые, As - высокослоистые, Sc - слоисто-кучевые, Ns - слоисто-дождевые, Cu - кучевые, Cb - кучево-дождевые. Подробнее классификацию облаков см. в Атласе облаков (PDF).
T - Температура воздуха - температура, измеренная на высоте 2 м над землей.
Td - Температура точки росы - температура, при понижении до которой содержащийся в воздухе водяной пар достигнет насыщения.
f - Относительная влажность воздуха - влажноcть воздуха, измеренная на высоте 2 м над землей.
Te - Эффективная температура - температура, которую ощущает одетый по сезону человек в тени. Характеристика душности погоды. При расчете учитывается влияние влажности воздуха и скорости ветра на теплоощущения человека.
Tes - Эффективная температура на солнце - температура, которую ощущает человек, с поправкой на солнечный нагрев. Характеристика знойности погоды. Зависит от высоты солнца над горизонтом, облачности и скорости ветра. Ночью, в пасмурную погоду, а также при ветре 12 м/с и более поправка равна нулю.
P - Атмосферное давление - приведенное к уровню моря атмосферное давление.
Po - Атмосферное давление - измеренное на уровне метеостанции атмосферное давление.
Tmin - Минимальная температура - минимум температуры воздуха на высоте 2 м над землей.
Tmax - Максимальная температура - максимум температуры воздуха на высоте 2 м над землей.
R - Количество осадков - Количество выпавших осадков за период времени, мм. При наведении курсора мыши на число - период времени, за который выпало указанное количество осадков.
R24 - Количество осадков - Количество выпавших осадков за 24 часа, мм.
S - Снежный покров - Высота снежного покрова, см. При наведении курсора мыши на число - состояние снежного покрова и степень покрытия местности в баллах.